Flag for U.S.A. Weather past 2 weeks in Walnut Creek, California, U.S.A.

Now
47 °F

Clear.


Feels Like: 46 °F
Forecast: 44 / 72 °F
Wind: 3 mph from Southeast

Location: Buchanan Field

Current Time: Mar 6, 2015 at 1:18:30 AM

Latest Report: Mar 6, 2015 at 12:53 AM


Visibility: 10 mi

Pressure: 30.25 "Hg

Humidity: 71%

Dew point: 38 °F

Location of Walnut CreekLocation

Historic Weather in Walnut Creek — Graph

°F

Walnut Creek temperature yesterday

Maximum temperature yesterday: 69 °F (at 2:53 PM)
Minimum temperature yesterday: 42 °F (at 5:53 AM)
Average temperature yesterday: 55 °F

Past Weeks' High & Low Weather Summary

 TemperatureHumidityPressure
High73 °F (Feb 26, 2:53 PM)97% (Feb 19, 7:53 AM)30.32 "Hg (Feb 19, 7:53 AM)
Low36 °F (Feb 24, 4:53 AM)9% (Feb 24, 11:53 AM)29.68 "Hg (Feb 28, 3:53 AM)
Average55 °F61%29.98 "Hg
* Reported Feb 18 11:53 PM — Mar 5 11:53 PM, Walnut Creek, Weather by CustomWeather, © 2015

Note: Actual official high and low records may vary slightly from our data, if they occured in-between our weather recording intervals... More about our weather records

Advertising

Walnut Creek weather history for previous 24 hours

 ConditionsComfort  
Time TempWeatherWind HumidityBarometerVisibility
11:53 PM
Thu, Mar 5
47 °FClear.3 mph71%30.26 "Hg10 mi
10:53 PM50 °FClear.3 mph66%30.27 "Hg10 mi
9:53 PM52 °FClear.3 mph61%30.27 "Hg10 mi
8:53 PM53 °FClear.No wind59%30.25 "Hg10 mi
7:53 PM57 °FClear.No wind49%30.24 "Hg10 mi
6:53 PM61 °FClear.No wind42%30.24 "Hg10 mi
5:53 PM66 °FSunny.3 mph32%30.23 "Hg10 mi
4:53 PM68 °FSunny.8 mph30%30.23 "Hg10 mi
3:53 PM69 °FSunny.8 mph35%30.24 "Hg10 mi
2:53 PM69 °FSunny.7 mph35%30.24 "Hg10 mi
1:53 PM68 °FSunny.7 mph38%30.26 "Hg10 mi
12:53 PM67 °FSunny.8 mph39%30.28 "Hg10 mi
11:53 AM64 °FSunny.8 mph43%30.30 "Hg10 mi
10:53 AM62 °FSunny.9 mph46%30.31 "Hg10 mi
9:53 AM59 °FSunny.5 mph49%30.32 "Hg10 mi
8:53 AM52 °FSunny.No wind61%30.32 "Hg10 mi
7:53 AM46 °FSunny.No wind71%30.30 "Hg10 mi
6:53 AM42 °FSunny.5 mph76%30.28 "Hg10 mi
5:53 AM42 °FClear.3 mph73%30.25 "Hg10 mi
4:53 AM43 °FClear.3 mph74%30.23 "Hg10 mi
3:53 AM44 °FClear.No wind68%30.21 "Hg10 mi
2:53 AM47 °FClear.3 mph64%30.21 "Hg10 mi
1:53 AM47 °FClear.7 mph64%30.21 "Hg10 mi
Weather by CustomWeather, © 2015

See weather overviewHow to use our weather pages